Flag for Switzerland Weather past 2 weeks in Schaffhausen, Schaffhausen, Switzerland

Now
64 °F

Mild.


Feels Like: 64 °F
Forecast: 53 / 86 °F
Wind: 1 mph from North

Location: Zurich-Kloten

Current Time: Aug 2, 2015 at 10:45:10 AM

Latest Report: Aug 2, 2015 at 10:00 AM


Visibility: N/A

Pressure: 30.12 "Hg

Humidity: 83%

Dew point: 59 °F

Location of SchaffhausenLocation

Historic Weather in Schaffhausen — Graph

°F

Schaffhausen temperature yesterday

Maximum temperature yesterday: 68 °F (at 2:00 PM)
Minimum temperature yesterday: 57 °F (at 2:00 AM)
Average temperature yesterday: 63 °F

Past Weeks' High & Low Weather Summary

 TemperatureHumidityPressure
High95 °F (Jul 22, 3:00 PM)99% (Jul 30, 7:00 AM)30.16 "Hg (Jul 30, 7:00 AM)
Low50 °F (Jul 30, 5:00 AM)28% (Jul 21, 7:00 PM)29.65 "Hg (Jul 24, 7:00 PM)
Average69 °F65%29.93 "Hg
* Reported Jul 18 9:00 AM — Aug 2 9:00 AM, Schaffhausen, Weather by CustomWeather, © 2015

Note: Actual official high and low records may vary slightly from our data, if they occured in-between our weather recording intervals... More about our weather records

Advertising

Schaffhausen weather history for previous 24 hours

 ConditionsComfort  
Time TempWeatherWind HumidityBarometerVisibility
9:00 AM
Sun, Aug 2
63 °FMild.1 mph87%30.11 "HgN/A
8:00 AM61 °FFog.3 mph91%30.11 "Hg2 mi
7:00 AM60 °FCool.2 mph93%30.10 "HgN/A
6:00 AM59 °FCool.1 mph94%30.10 "HgN/A
5:00 AM59 °FFog.1 mph94%30.08 "Hg3 mi
4:00 AM61 °FCool.2 mph92%30.07 "HgN/A
3:00 AM62 °FCool.3 mph87%30.06 "HgN/A
2:00 AM63 °FFog.3 mph88%30.06 "Hg4 mi
1:00 AM63 °FMild.1 mph86%30.06 "HgN/A
12:00 AM64 °FMild.2 mph84%30.06 "HgN/A
10:00 PM
Sat, Aug 1
65 °FMild.2 mph78%30.03 "HgN/A
9:00 PM65 °FMild.3 mph77%30.01 "HgN/A
8:00 PM66 °FOvercast.2 mph73%29.99 "Hg12 mi
7:00 PM66 °FMild.3 mph72%29.98 "HgN/A
6:00 PM67 °FMild.3 mph70%29.98 "HgN/A
5:00 PM67 °FOvercast.5 mph71%29.97 "Hg16 mi
4:00 PM68 °FMild.7 mph67%29.97 "HgN/A
3:00 PM68 °FMild.6 mph67%29.96 "HgN/A
2:00 PM68 °FOvercast.3 mph68%29.96 "Hg12 mi
1:00 PM65 °FMild.3 mph71%29.98 "HgN/A
12:00 PM63 °FMild.2 mph77%30.01 "HgN/A
11:00 AM61 °FLow clouds.2 mph85%30.02 "Hg6 mi
10:00 AM60 °FCool.3 mph89%30.01 "HgN/A
Weather by CustomWeather, © 2015

See weather overviewHow to use our weather pages